[[{"header":{"parameterUnit":"m.s-1","parameterCategory":2,"la1":30.2991,"la2":30.254,"lo1":-89.0895,"lo2":-89.0444,"dy":0.0017,"dx":0.0017,"nx":28,"ny":28,"refTime":"2025-07-19T21:00:00:Z","depth":"0","parameterNumber":2,"parameterNumberName":"U-component_of_CURRENTS"},"data":[0,0,0,0,0,0,0,0,0,0,0,0,0,0,0,0,0,0,0,0,0,0,0,0,0,0,0,0,0,0,0,0,0,0,0,0,0,0,0,0,0,0,0,0,0,0,0,0,0,0,0,0,0,0,0,0,0,0,0.4294,0.4294,0,0.4367,0.4368,0.4369,0.4362,0.436,0.4359,0.4358,0.4332,0.4333,0.4333,0,0,0,0,0,0,0,0,0,0,0,0,0,0.4261,0.4261,0.4294,0.4295,0.4295,0.4367,0.4368,0.4369,0.4362,0.436,0.4359,0.4358,0.4332,0.4333,0.4333,0,0,0,0,0,0,0,0,0,0,0,0,0,0.4299,0.4261,0.4293,0.43,0.4302,0.4367,0.4368,0.437,0.4362,0.436,0.4359,0.4357,0.4332,0.4333,0.4333,0.4372,0,0,0.4335,0.4335,0,0,0,0,0,0,0,0,0.4297,0.43,0.4298,0.43,0.4302,0.4353,0.4348,0.4365,0.4363,0.4339,0.4358,0.4356,0.4331,0.4332,0.4351,0.4371,0.4369,0.4335,0.4335,0.4336,0.4336,0,0,0,0,0,0,0,0.4294,0.4298,0.4323,0.4299,0.4301,0.4339,0.4341,0.4352,0.4342,0.4341,0.4341,0.4349,0.4331,0.4351,0.435,0.4369,0.4335,0.4336,0.4336,0.4336,0.4496,0.45,0,0,0,0,0,0,0.4281,0.4295,0.4321,0.4325,0.4295,0.4341,0.4343,0.4339,0.4344,0.4345,0.4351,0.4349,0.4351,0.435,0.4349,0.4459,0.4336,0.4336,0.4337,0.4493,0.4497,0.4501,0,0,0,0,0,0,0.4279,0.4282,0.4318,0.4312,0.4319,0.4342,0.4338,0.4341,0.4364,0.4353,0.4351,0.437,0.4349,0.4348,0.4401,0.4454,0.4336,0.4337,0.4488,0.4494,0.4499,0.4636,0,0,0,0,0,0,0.4278,0.428,0.4282,0.4311,0.4319,0.4396,0.4339,0.4344,0.4371,0.437,0.4369,0.4364,0.4348,0.4401,0.4402,0.4453,0.4337,0.4483,0.4491,0.4497,0.4627,0.4646,0.4662,0,0,0,0,0,0.4276,0.4306,0.4282,0.4286,0.4317,0.44,0.441,0.4419,0.4374,0.4424,0.4419,0.4365,0.4447,0.4405,0.4405,0.4458,0.4479,0.4488,0.4497,0.4619,0.4642,0.4662,0,0,0,0,0,0,0.4304,0.4308,0.4283,0.4311,0.4361,0.4399,0.4437,0.4429,0.4465,0.4449,0.4416,0.4417,0.4488,0.4461,0.4415,0.453,0.4454,0.4463,0.4546,0.4568,0.4586,0.4546,0.4338,0,0,0,0,0,0.4305,0.4331,0.4343,0.4382,0.439,0.4407,0.4436,0.4447,0.4476,0.4488,0.4485,0.4489,0.4528,0.4535,0.4566,0.462,0.4616,0.4656,0.4674,0.4689,0.4661,0.4762,0.4786,0.453,0.453,0.453,0,0,0.4335,0.4339,0.4357,0.4391,0.4412,0.4446,0.4422,0.4485,0.4516,0.4479,0.4524,0.4556,0.4562,0.4641,0.4667,0.4618,0.4766,0.47,0.4713,0.4675,0.4773,0.4798,0.482,0.4536,0.4535,0.4534,0,0,0.4403,0.4398,0.4423,0.4455,0.4492,0.451,0.4525,0.4564,0.4581,0.4637,0.4633,0.4699,0.4723,0.4766,0.4778,0.4909,0.4869,0.4922,0.4963,0.5065,0.5086,0.5104,0.5147,0.5168,0.4917,0.4918,0.4918,0,0.4421,0.4446,0.446,0.4482,0.4516,0.4529,0.457,0.4599,0.4659,0.4705,0.4662,0.4778,0.4778,0.4893,0.4931,0.4946,0.4977,0.4879,0.5086,0.5104,0.512,0.516,0.5182,0.4925,0.4924,0.4924,0.4923,0,0.4493,0.4507,0.4538,0.455,0.4603,0.4664,0.4685,0.4744,0.4748,0.4784,0.49,0.4927,0.4997,0.5021,0.4995,0.5134,0.5112,0.511,0.5025,0.5154,0.5189,0.5208,0.4936,0.4934,0.4931,0.4929,0,0,0.453,0.4569,0.4572,0.4592,0.4643,0.4701,0.4765,0.4857,0.4913,0.4965,0.5059,0.5126,0.5155,0.517,0.519,0.5241,0.5382,0.5211,0.5213,0.5239,0.5579,0.541,0.5414,0.5431,0.5435,0.5438,0.5562,0,0.4569,0.4621,0.4638,0.4715,0.475,0.4794,0.4864,0.4955,0.5012,0.5112,0.5168,0.5257,0.5209,0.5257,0.5318,0.5381,0.5437,0.5345,0.5459,0.546,0.5284,0.5433,0.5135,0.5207,0.558,0.5584,0.5586,0,0.463,0.465,0.4716,0.48,0.4818,0.4866,0.5005,0.507,0.5208,0.5257,0.5362,0.5401,0.5513,0.5434,0.5587,0.5539,0.5555,0.557,0.5578,0.5369,0.5327,0.5137,0.5228,0.511,0.5615,0.5613,0.5611,0,0.4691,0.4725,0.4784,0.4806,0.4884,0.4938,0.4997,0.513,0.5215,0.5358,0.5435,0.5569,0.5634,0.5707,0.5712,0.5684,0.5841,0.5827,0.5688,0.5675,0.5408,0.5364,0.5371,0.5922,0.5921,0.5921,0.5921,0,0.4769,0.4807,0.4801,0.4842,0.4924,0.497,0.5094,0.5178,0.5311,0.542,0.5511,0.5604,0.5702,0.579,0.5792,0.579,0.5928,0.5701,0.5709,0.5448,0.5408,0.5277,0.5243,0.5926,0.5925,0.5924,0.5923,0,0.4864,0.4852,0.4918,0.4958,0.4964,0.5036,0.5137,0.5221,0.5338,0.5479,0.553,0.5684,0.5767,0.5825,0.5931,0.5872,0.5723,0.5852,0.5498,0.5459,0.5173,0.5157,0.4983,0.4847,0.5737,0.5734,0.5731,0,0.4914,0.4948,0.4999,0.5007,0.5018,0.5087,0.5135,0.5242,0.532,0.5505,0.5572,0.5694,0.5713,0.5797,0.5712,0.569,0.5593,0.5424,0.5296,0.5116,0.511,0.4967,0.4856,0.502,0.5012,0.5005,0.5,0,0.4985,0.5007,0.5059,0.5075,0.5096,0.5134,0.5195,0.5248,0.536,0.5444,0.5525,0.5543,0.5557,0.5368,0.5319,0.5284,0.5141,0.5279,0.5214,0.4633,0.4358,0.4242,0.4964,0.4939,0.4945,0.4949,0.4953,0.4955,0.5034,0.507,0.5099,0.5104,0.5117,0.5098,0.5049,0.5105,0.5149,0.5112,0.5322,0.517,0.5096,0.4943,0.4888,0.461,0.4685,0.4458,0.4485,0.4381,0.4129,0.4676,0.458,0.4584,0.4587,0.459,0.4593,0,0.5004,0.5027,0.5082,0.5041,0.4967,0.5003,0.4994,0.4853,0.475,0.4795,0.476,0.4555,0.435,0.4274,0.4051,0.3858,0.3707,0.3776,0.3534,0.3493,0.4085,0.393,0.3538,0.3538,0.3538,0.3538,0.3538,0.3538,0.5027,0.4983,0.4989,0.4823,0.4766,0.4537,0.4452,0.4301,0.4235,0.3967,0.377,0.3748,0.3827,0.3752,0.3499,0.3398,0.3189,0.297,0.309,0.3536,0.3602,0.3665,0.3512,0.3039,0.3039,0.2289,0.2284,0.228]},{"header":{"parameterUnit":"m.s-1","parameterCategory":2,"la1":30.2991,"la2":30.254,"lo1":-89.0895,"lo2":-89.0444,"dy":0.0017,"dx":0.0017,"nx":28,"ny":28,"refTime":"2025-07-19T21:00:00:Z","depth":"0","parameterNumber":3,"parameterNumberName":"V-component_of_CURRENTS"},"data":[0,0,0,0,0,0,0,0,0,0,0,0,0,0,0,0,0,0,0,0,0,0,0,0,0,0,0,0,0,0,0,0,0,0,0,0,0,0,0,0,0,0,0,0,0,0,0,0,0,0,0,0,0,0,0,0,0,0,0.0551,0.0551,0,0.0506,0.0506,0.0505,0.045,0.0449,0.0449,0.0448,0.034,0.0338,0.0336,0,0,0,0,0,0,0,0,0,0,0,0,0,0.0548,0.0549,0.0551,0.0551,0.055,0.0506,0.0506,0.0505,0.045,0.0449,0.0448,0.0448,0.0341,0.0338,0.0336,0,0,0,0,0,0,0,0,0,0,0,0,0,0.053,0.0549,0.0551,0.0519,0.0516,0.0506,0.0506,0.0505,0.045,0.0449,0.0448,0.0447,0.0342,0.0339,0.0335,0.0337,0,0,0.0325,0.0324,0,0,0,0,0,0,0,0,0.0531,0.053,0.0524,0.0521,0.0517,0.0484,0.0465,0.0446,0.0451,0.0474,0.0448,0.0447,0.0384,0.0377,0.037,0.0332,0.0328,0.0325,0.0323,0.0322,0.0321,0,0,0,0,0,0,0,0.0533,0.0531,0.0532,0.0524,0.052,0.0492,0.0489,0.0461,0.0433,0.0472,0.0468,0.0465,0.0381,0.0374,0.0367,0.0326,0.0325,0.0322,0.032,0.0319,0.0261,0.0261,0,0,0,0,0,0,0.0545,0.0533,0.0533,0.0531,0.0523,0.0494,0.0489,0.0495,0.0435,0.0426,0.0466,0.0463,0.038,0.0371,0.0363,0.0383,0.0322,0.0319,0.0317,0.026,0.0261,0.0261,0,0,0,0,0,0,0.0545,0.0545,0.0535,0.0531,0.0528,0.0495,0.0501,0.0494,0.0485,0.0432,0.0421,0.0464,0.0379,0.0368,0.0346,0.0377,0.0317,0.0314,0.026,0.0261,0.0261,0.0409,0,0,0,0,0,0,0.0545,0.0546,0.0552,0.0533,0.0529,0.0546,0.0502,0.0494,0.0486,0.0481,0.0426,0.0415,0.0377,0.0351,0.0343,0.0372,0.0312,0.0259,0.026,0.0261,0.0404,0.0415,0.0424,0,0,0,0,0,0.0545,0.0573,0.0553,0.0553,0.054,0.0548,0.0544,0.0515,0.0487,0.0499,0.0455,0.0417,0.0349,0.035,0.0339,0.0368,0.0259,0.026,0.0261,0.0399,0.0413,0.0424,0,0,0,0,0,0,0.0578,0.0569,0.0547,0.057,0.0562,0.0539,0.0546,0.0522,0.0498,0.0491,0.0429,0.0416,0.0402,0.0361,0.0362,0.0349,0.0295,0.0294,0.0404,0.0416,0.0426,0.0476,0.0309,0,0,0,0,0,0.0588,0.0604,0.0586,0.0605,0.0602,0.0572,0.0568,0.0555,0.0532,0.052,0.0481,0.0435,0.0399,0.0389,0.0348,0.0353,0.0325,0.0359,0.037,0.0379,0.041,0.0403,0.0417,0.0265,0.0264,0.0264,0,0,0.0609,0.0603,0.0613,0.0612,0.0599,0.062,0.0568,0.058,0.0598,0.0512,0.052,0.0467,0.0403,0.0403,0.0394,0.0377,0.0402,0.038,0.0389,0.0415,0.0405,0.0421,0.0434,0.0265,0.0265,0.0265,0,0,0.0662,0.065,0.0678,0.068,0.0674,0.0663,0.0669,0.0654,0.0645,0.0643,0.0582,0.0561,0.0504,0.0485,0.0459,0.0502,0.0447,0.0473,0.0584,0.0577,0.059,0.0602,0.0573,0.0582,0.0491,0.0492,0.0492,0,0.0676,0.0712,0.0689,0.0716,0.0728,0.0687,0.0726,0.0718,0.0699,0.071,0.0661,0.0609,0.0549,0.0568,0.0577,0.0531,0.0508,0.0549,0.0595,0.0606,0.0616,0.0583,0.0591,0.0499,0.0498,0.0497,0.0496,0,0.0749,0.0775,0.0796,0.0813,0.0828,0.0858,0.0848,0.0861,0.0835,0.0827,0.0831,0.0761,0.074,0.0707,0.0653,0.0696,0.0649,0.0603,0.0578,0.0641,0.0601,0.0606,0.0509,0.0506,0.0504,0.0503,0,0,0.0775,0.0833,0.0837,0.0874,0.0884,0.0914,0.0949,0.098,0.1029,0.0988,0.1046,0.0971,0.0944,0.0914,0.0851,0.0845,0.0871,0.0767,0.0763,0.0764,0.0848,0.0771,0.0768,0.0839,0.0841,0.0843,0.0789,0,0.0827,0.0909,0.0923,0.101,0.1051,0.1048,0.1098,0.1125,0.1127,0.1175,0.1118,0.1134,0.102,0.1027,0.1003,0.0912,0.0893,0.089,0.0765,0.0761,0.0707,0.0775,0.0744,0.0691,0.0793,0.0794,0.0795,0,0.0883,0.0933,0.1024,0.1126,0.1146,0.1197,0.1285,0.133,0.1376,0.1383,0.1393,0.1347,0.1342,0.1229,0.1128,0.1133,0.1009,0.0922,0.0917,0.0806,0.0696,0.0642,0.0695,0.0533,0.0801,0.0801,0.08,0,0.0914,0.101,0.1091,0.1118,0.1215,0.1271,0.133,0.1394,0.147,0.1532,0.1595,0.1553,0.156,0.1421,0.1227,0.119,0.1104,0.1023,0.0833,0.0824,0.0755,0.0737,0.0662,0.0951,0.0951,0.0952,0.0952,0,0.0963,0.1033,0.1119,0.1164,0.1292,0.1339,0.148,0.1533,0.1643,0.1772,0.1716,0.1801,0.1612,0.1531,0.1318,0.1105,0.117,0.0879,0.0823,0.0799,0.0787,0.0605,0.05,0.0949,0.095,0.095,0.0951,0,0.0996,0.1039,0.1147,0.1262,0.1308,0.1406,0.1583,0.1695,0.1782,0.1953,0.199,0.2007,0.1908,0.1681,0.1466,0.1237,0.0909,0.0919,0.0894,0.0836,0.0491,0.0395,0.023,0.0161,0.0717,0.0715,0.0713,0,0.1026,0.108,0.1215,0.1291,0.1351,0.1497,0.1612,0.1744,0.1884,0.2084,0.2187,0.2162,0.216,0.1812,0.1414,0.1045,0.0861,0.0758,0.0672,0.0498,0.035,0.0273,0.0223,0.0627,0.0624,0.0623,0.0621,0,0.1093,0.1132,0.1221,0.1366,0.1492,0.1649,0.1831,0.1962,0.2148,0.2307,0.2495,0.2515,0.2198,0.1824,0.131,0.1048,0.0632,0.0707,0.055,0.0305,0.0197,0.0095,0.0618,0.0605,0.0607,0.0608,0.0609,0.0609,0.115,0.1212,0.1321,0.1464,0.1611,0.1797,0.1938,0.2145,0.2381,0.2626,0.2672,0.2711,0.2188,0.1491,0.114,0.0477,0.0487,0.0258,0.0165,0.0111,0.0024,0.0502,0.0407,0.0407,0.0407,0.0408,0.0408,0,0.1209,0.1284,0.1421,0.1593,0.1756,0.1822,0.2088,0.2233,0.2502,0.2698,0.2846,0.2576,0.1955,0.1332,0.0431,0.0006,-0.0116,-0.02,-0.0296,-0.0314,0.0135,0.0111,-0.0079,-0.0079,-0.0078,-0.0078,-0.0078,-0.0078,0.1253,0.1363,0.1422,0.168,0.181,0.202,0.2163,0.2377,0.2551,0.2726,0.2721,0.2698,0.2199,0.0729,-0.021,-0.0403,-0.0652,-0.0761,-0.0842,-0.0531,-0.0494,-0.0459,-0.0502,-0.0818,-0.0819,-0.1236,-0.1241,-0.1244]}],[{"header":{"parameterUnit":"m.s-1","parameterCategory":2,"la1":30.2991,"la2":30.254,"lo1":-89.0895,"lo2":-89.0444,"dy":0.0017,"dx":0.0017,"nx":28,"ny":28,"refTime":"2025-07-19T21:00:00:Z","depth":"2","parameterNumber":2,"parameterNumberName":"U-component_of_CURRENTS"},"data":[0,0,0,0,0,0,0,0,0,0,0,0,0,0,0,0,0,0,0,0,0,0,0,0,0,0,0,0,0,0,0,0,0,0,0,0,0,0,0,0,0,0,0,0,0,0,0,0,0,0,0,0,0,0,0,0,0,0,0.3196,0.3197,0,0.3233,0.3233,0.3233,0.3253,0.3254,0.3254,0.3255,0.3301,0.3302,0.3303,0,0,0,0,0,0,0,0,0,0,0,0,0,0.3094,0.3095,0.3196,0.3197,0.3198,0.3233,0.3233,0.3233,0.3253,0.3254,0.3254,0.3255,0.3301,0.3302,0.3303,0,0,0,0,0,0,0,0,0,0,0,0,0,0.313,0.3096,0.3196,0.3216,0.3218,0.3233,0.3233,0.3233,0.3253,0.3254,0.3254,0.3255,0.3301,0.3302,0.3303,0.3295,0,0,0.3307,0.3307,0,0,0,0,0,0,0,0,0.3128,0.3134,0.3212,0.3215,0.3217,0.3243,0.3214,0.3256,0.3253,0.3235,0.3255,0.3256,0.3286,0.3288,0.3286,0.3297,0.3299,0.3307,0.3308,0.3308,0.3308,0,0,0,0,0,0,0,0.3126,0.3132,0.3206,0.3213,0.3216,0.3206,0.3212,0.3221,0.3252,0.3236,0.3239,0.3251,0.3287,0.3285,0.3288,0.33,0.3307,0.3308,0.3309,0.3309,0.3447,0.345,0,0,0,0,0,0,0.3133,0.313,0.3205,0.3207,0.3179,0.3208,0.3214,0.323,0.3252,0.3257,0.325,0.3252,0.3283,0.3286,0.3289,0.3429,0.3308,0.3309,0.331,0.3444,0.3447,0.3451,0,0,0,0,0,0,0.3131,0.314,0.3203,0.3173,0.3181,0.321,0.3227,0.3231,0.3255,0.3263,0.3267,0.3274,0.3283,0.3288,0.3348,0.3425,0.331,0.3311,0.344,0.3445,0.3449,0.3613,0,0,0,0,0,0,0.3128,0.3139,0.3162,0.3174,0.3183,0.3253,0.3227,0.3231,0.3262,0.3264,0.3284,0.3288,0.3284,0.3346,0.3349,0.3425,0.3312,0.3437,0.3442,0.3448,0.3604,0.3623,0.3639,0,0,0,0,0,0.3124,0.3154,0.3162,0.3172,0.3211,0.3255,0.326,0.3278,0.3262,0.3296,0.3313,0.3289,0.3383,0.335,0.3352,0.343,0.3434,0.3441,0.3447,0.3596,0.3619,0.3638,0,0,0,0,0,0,0.3122,0.3159,0.3169,0.321,0.325,0.3262,0.3287,0.3291,0.3325,0.3331,0.3322,0.3329,0.3404,0.3391,0.3354,0.3485,0.3406,0.3413,0.3519,0.354,0.3557,0.3485,0.3313,0,0,0,0,0,0.3132,0.3164,0.3202,0.3237,0.3257,0.3272,0.3292,0.3312,0.3338,0.3353,0.337,0.3393,0.3428,0.3464,0.3478,0.3553,0.3536,0.3605,0.3622,0.3637,0.3581,0.3695,0.3718,0.3473,0.3472,0.3472,0,0,0.3137,0.3165,0.3182,0.3239,0.326,0.3292,0.3286,0.3335,0.3361,0.3352,0.3404,0.3443,0.3454,0.3542,0.3577,0.3551,0.3701,0.3646,0.3659,0.3592,0.3704,0.3728,0.3749,0.3477,0.3476,0.3476,0,0,0.3163,0.3193,0.3229,0.326,0.3317,0.333,0.3351,0.3394,0.3418,0.3474,0.3486,0.356,0.3606,0.3649,0.3666,0.3779,0.3775,0.382,0.3873,0.3989,0.401,0.4027,0.4048,0.4066,0.385,0.3851,0.3851,0,0.3185,0.3215,0.3249,0.3286,0.3316,0.3347,0.339,0.341,0.3472,0.3521,0.3507,0.3631,0.3636,0.3757,0.3794,0.3814,0.3862,0.3802,0.4013,0.403,0.4045,0.4062,0.408,0.3859,0.3858,0.3857,0.3856,0,0.3214,0.3252,0.3274,0.3327,0.3371,0.3415,0.3455,0.3517,0.3545,0.3582,0.3708,0.3742,0.3828,0.3866,0.3848,0.3998,0.3989,0.4013,0.3961,0.408,0.4089,0.4105,0.3872,0.3869,0.3866,0.3864,0,0,0.3241,0.3291,0.33,0.3332,0.3397,0.3439,0.3505,0.3595,0.3658,0.3732,0.3833,0.3897,0.3957,0.3975,0.4028,0.4102,0.4243,0.4112,0.4114,0.4128,0.447,0.431,0.4311,0.4361,0.4365,0.4367,0.4436,0,0.3265,0.3328,0.3351,0.3416,0.3455,0.3514,0.3555,0.3647,0.3736,0.3843,0.392,0.4015,0.3994,0.4076,0.4159,0.4233,0.4293,0.4217,0.4348,0.4348,0.4193,0.4326,0.4002,0.4024,0.4451,0.4453,0.4455,0,0.3271,0.3328,0.3399,0.3464,0.3486,0.3533,0.3669,0.3721,0.3872,0.3948,0.4101,0.4154,0.4285,0.4236,0.4409,0.4393,0.4411,0.4433,0.444,0.4221,0.4218,0.3972,0.4036,0.4481,0.4479,0.4477,0.4475,0,0.3248,0.3344,0.3408,0.3432,0.3521,0.3588,0.3642,0.3782,0.3859,0.4055,0.4162,0.4314,0.4426,0.4498,0.4529,0.4518,0.4677,0.4683,0.4532,0.452,0.4214,0.4167,0.4753,0.4753,0.4753,0.4753,0.4752,0,0.3209,0.3272,0.3415,0.3437,0.3528,0.3602,0.3722,0.3803,0.3967,0.407,0.4233,0.434,0.4508,0.4613,0.4601,0.4614,0.4759,0.4517,0.4541,0.426,0.422,0.4577,0.4556,0.4755,0.4755,0.4754,0.4754,0,0.3144,0.3217,0.3333,0.3474,0.3508,0.3595,0.3734,0.3829,0.3994,0.4155,0.422,0.4434,0.4554,0.4651,0.4764,0.4711,0.4716,0.4665,0.4266,0.4239,0.445,0.4436,0.4517,0.4512,0.4508,0.4504,0.4502,0,0.3112,0.3163,0.3355,0.3411,0.3478,0.361,0.367,0.3827,0.3929,0.4166,0.4222,0.4415,0.4475,0.4594,0.4541,0.4512,0.4619,0.4179,0.4054,0.4416,0.4434,0.4426,0.4419,0.3724,0.3715,0.3708,0.3702,0,0.3098,0.3195,0.3276,0.3377,0.3476,0.3578,0.3681,0.3726,0.3903,0.401,0.4105,0.4166,0.4305,0.4137,0.4144,0.4075,0.4161,0.4023,0.4585,0.3822,0.3673,0.3688,0.3707,0.3637,0.3643,0.3648,0.3652,0.3654,0.3128,0.3172,0.3269,0.3345,0.3442,0.3483,0.3461,0.3556,0.3601,0.3645,0.383,0.381,0.3878,0.3693,0.3564,0.3488,0.3756,0.3597,0.362,0.365,0.3533,0.3385,0.3268,0.3272,0.3276,0.3279,0.3282,0,0.3188,0.3198,0.3206,0.3249,0.3276,0.3397,0.3406,0.3315,0.323,0.3349,0.3369,0.3109,0.301,0.3078,0.2849,0.2827,0.2809,0.272,0.2677,0.2745,0.2805,0.2644,0.2144,0.214,0.2136,0.2133,0,0,0.3181,0.3171,0.3098,0.308,0.3119,0.3056,0.3026,0.2871,0.2844,0.2699,0.2671,0.2906,0.3011,0.2548,0.2479,0.2272,0.2494,0.2188,0.3111,0.3133,0.3187,0.333,0.3161,0,0,0,0,0]},{"header":{"parameterUnit":"m.s-1","parameterCategory":2,"la1":30.2991,"la2":30.254,"lo1":-89.0895,"lo2":-89.0444,"dy":0.0017,"dx":0.0017,"nx":28,"ny":28,"refTime":"2025-07-19T21:00:00:Z","depth":"2","parameterNumber":3,"parameterNumberName":"V-component_of_CURRENTS"},"data":[0,0,0,0,0,0,0,0,0,0,0,0,0,0,0,0,0,0,0,0,0,0,0,0,0,0,0,0,0,0,0,0,0,0,0,0,0,0,0,0,0,0,0,0,0,0,0,0,0,0,0,0,0,0,0,0,0,0,0.026,0.0259,0,0.0205,0.0204,0.0203,0.0158,0.0158,0.0158,0.0158,0.0072,0.007,0.0068,0,0,0,0,0,0,0,0,0,0,0,0,0,0.0257,0.0257,0.026,0.0259,0.0259,0.0205,0.0204,0.0203,0.0158,0.0158,0.0158,0.0158,0.0073,0.0071,0.0068,0,0,0,0,0,0,0,0,0,0,0,0,0,0.0234,0.0257,0.026,0.0232,0.0229,0.0205,0.0204,0.0202,0.0158,0.0158,0.0158,0.0157,0.0074,0.0071,0.0068,0.0057,0,0,0.0058,0.0057,0,0,0,0,0,0,0,0,0.0235,0.0234,0.0236,0.0234,0.0231,0.019,0.0171,0.0153,0.0159,0.0183,0.0158,0.0157,0.0111,0.0104,0.0092,0.0053,0.0049,0.0058,0.0056,0.0055,0.0054,0,0,0,0,0,0,0,0.0237,0.0235,0.0236,0.0236,0.0232,0.0198,0.0195,0.0167,0.0147,0.0181,0.0178,0.0175,0.0108,0.0095,0.009,0.0048,0.0058,0.0056,0.0054,0.0052,-0.0018,-0.0018,0,0,0,0,0,0,0.0252,0.0237,0.0238,0.0234,0.0234,0.0199,0.0195,0.0202,0.0148,0.014,0.0176,0.0174,0.0101,0.0093,0.0087,0.0092,0.0055,0.0052,0.005,-0.0018,-0.0018,-0.0018,0,0,0,0,0,0,0.0253,0.0253,0.024,0.0235,0.0232,0.02,0.0207,0.0201,0.0192,0.0145,0.0136,0.0175,0.01,0.0091,0.0069,0.0087,0.0051,0.0048,-0.0018,-0.0018,-0.0018,0.0088,0,0,0,0,0,0,0.0253,0.0254,0.0261,0.0237,0.0233,0.024,0.0208,0.02,0.0192,0.0189,0.0142,0.0133,0.0099,0.0074,0.0066,0.0083,0.0046,-0.0018,-0.0018,-0.0018,0.0085,0.0092,0.0098,0,0,0,0,0,0.0253,0.0275,0.0262,0.0262,0.0245,0.0241,0.0236,0.021,0.0193,0.0199,0.0162,0.0135,0.0067,0.0072,0.0063,0.0079,-0.0018,-0.0018,-0.0018,0.0082,0.0091,0.0098,0,0,0,0,0,0,0.0275,0.0271,0.0257,0.0275,0.0264,0.0235,0.0237,0.0218,0.0193,0.0191,0.0139,0.0129,0.0112,0.0077,0.0083,0.0054,0.0018,0.0016,0.0097,0.0105,0.0111,0.0151,0.0043,0,0,0,0,0,0.0285,0.0298,0.0284,0.0295,0.0295,0.0266,0.0259,0.0247,0.0223,0.0212,0.0178,0.0137,0.0103,0.0091,0.0054,0.0047,0.0015,0.0046,0.0053,0.0059,0.0082,0.0062,0.007,-0.0018,-0.0018,-0.0018,0,0,0.0289,0.0293,0.0295,0.03,0.0287,0.0301,0.0261,0.0266,0.0275,0.0207,0.0205,0.0158,0.0103,0.0091,0.008,0.0068,0.0059,0.0059,0.0065,0.0085,0.0063,0.0072,0.008,-0.0018,-0.0018,-0.0018,0,0,0.0321,0.0317,0.0343,0.0344,0.0344,0.0331,0.0338,0.0319,0.0309,0.0302,0.025,0.0222,0.0172,0.0142,0.0118,0.0138,0.009,0.0116,0.0193,0.0174,0.0182,0.0189,0.0136,0.0137,0.0127,0.0127,0.0128,0,0.0329,0.0363,0.0347,0.0378,0.0387,0.0351,0.0384,0.0369,0.0345,0.0349,0.0316,0.0253,0.02,0.0194,0.0194,0.0157,0.0128,0.0174,0.0187,0.0193,0.0198,0.0142,0.0142,0.0132,0.0132,0.0131,0.0131,0,0.0382,0.041,0.0427,0.0454,0.0461,0.0483,0.0471,0.0476,0.0454,0.044,0.0429,0.0358,0.0328,0.0297,0.0251,0.0262,0.022,0.0195,0.0178,0.0214,0.0151,0.0149,0.014,0.0138,0.0136,0.0135,0,0,0.0402,0.0455,0.0462,0.05,0.0509,0.0531,0.0548,0.0564,0.0599,0.0553,0.0586,0.0508,0.0476,0.0446,0.0383,0.0364,0.0351,0.0307,0.0303,0.0274,0.0291,0.0244,0.0236,0.0338,0.0339,0.0339,0.0223,0,0.0449,0.0533,0.0539,0.0613,0.0657,0.0643,0.0668,0.0678,0.0674,0.0695,0.0628,0.0624,0.0531,0.0524,0.0489,0.0398,0.0357,0.0384,0.0243,0.0238,0.021,0.0237,0.0268,0.0168,0.0221,0.0221,0.0221,0,0.0503,0.0558,0.0641,0.072,0.0737,0.0772,0.0831,0.0857,0.0866,0.0864,0.0849,0.0789,0.0747,0.0662,0.0534,0.0559,0.0435,0.0351,0.0344,0.0271,0.0191,0.0142,0.0162,0.0217,0.0217,0.0218,0.0218,0,0.0546,0.0635,0.071,0.0733,0.0803,0.0844,0.0884,0.0913,0.0972,0.0985,0.1026,0.0943,0.093,0.078,0.0587,0.0568,0.0441,0.0386,0.0216,0.0208,0.0193,0.0185,0.0288,0.0288,0.0288,0.0289,0.0289,0,0.0602,0.0668,0.0745,0.079,0.0898,0.0923,0.1038,0.1061,0.1128,0.1221,0.1129,0.1164,0.0967,0.0857,0.0649,0.0438,0.0479,0.0241,0.0191,0.0225,0.0221,0.0235,0.0231,0.0284,0.0285,0.0286,0.0287,0,0.0647,0.0683,0.079,0.0885,0.0924,0.1011,0.1155,0.1249,0.1289,0.141,0.1421,0.1356,0.1208,0.0975,0.0735,0.0541,0.0322,0.0223,0.0259,0.0216,0.0076,0.0078,0.0028,0.0026,0.0024,0.0022,0.0021,0,0.0683,0.0742,0.0869,0.0945,0.0998,0.1132,0.1233,0.1319,0.1437,0.1521,0.1592,0.1486,0.1411,0.1038,0.0691,0.033,0.0286,0.0115,0.0079,0.0101,0.0057,0.0062,0.0066,0.0079,0.0078,0.0077,0.0077,0,0.0768,0.0806,0.0893,0.1044,0.1165,0.1315,0.1472,0.1578,0.1692,0.1763,0.182,0.1756,0.1428,0.1078,0.061,0.0364,0.0178,0.0088,0.0131,0.0144,0.0141,0.01,0.0104,0.0071,0.0072,0.0072,0.0072,0.0073,0.0834,0.0904,0.1015,0.1164,0.1307,0.1481,0.1601,0.1752,0.1899,0.1994,0.1955,0.186,0.1513,0.0897,0.0508,0.0113,0.012,-0.0032,-0.0027,-0.0021,0.0011,0.0005,-0.0087,-0.0088,-0.0088,-0.0088,-0.0089,0,0.0919,0.0997,0.1136,0.1303,0.1466,0.1532,0.175,0.184,0.1979,0.2053,0.2056,0.1692,0.1327,0.0928,0.0343,-0.0015,-0.0028,-0.0132,-0.0061,-0.0054,-0.0047,-0.0014,-0.012,-0.0121,-0.0122,-0.0123,0,0,0.0959,0.1092,0.1157,0.1411,0.1537,0.1726,0.1839,0.1934,0.2014,0.2015,0.197,0.19,0.1442,0.1011,0.0541,0.0213,0.0157,0.0141,0.0203,0.035,0.036,0.0045,0.0109,0,0,0,0,0]}],[{"header":{"parameterUnit":"m.s-1","parameterCategory":2,"la1":30.2991,"la2":30.254,"lo1":-89.0895,"lo2":-89.0444,"dy":0.0017,"dx":0.0017,"nx":28,"ny":28,"refTime":"2025-07-19T21:00:00:Z","depth":"4","parameterNumber":2,"parameterNumberName":"U-component_of_CURRENTS"},"data":[0,0,0,0,0,0,0,0,0,0,0,0,0,0,0,0,0,0,0,0,0,0,0,0,0,0,0,0,0,0,0,0,0,0,0,0,0,0,0,0,0,0,0,0,0,0,0,0,0,0,0,0,0,0,0,0,0,0,0.1751,0.1752,0,0.1815,0.1815,0.1816,0.1884,0.1885,0.1886,0.1887,0.1965,0.1966,0.1967,0,0,0,0,0,0,0,0,0,0,0,0,0,0.1676,0.1677,0.1751,0.1752,0.1753,0.1815,0.1815,0.1816,0.1884,0.1885,0.1886,0.1887,0.1965,0.1966,0.1967,0,0,0,0,0,0,0,0,0,0,0,0,0,0.172,0.1677,0.1751,0.1795,0.1799,0.1814,0.1815,0.1816,0.1883,0.1885,0.1887,0.1888,0.1964,0.1966,0.1968,0.1946,0,0,0.1973,0.1973,0,0,0,0,0,0,0,0,0.1717,0.1723,0.1787,0.1792,0.1797,0.1844,0.1818,0.1861,0.1883,0.185,0.1887,0.1889,0.1925,0.193,0.1937,0.195,0.1953,0.1973,0.1974,0.1974,0.1975,0,0,0,0,0,0,0,0.1714,0.172,0.1775,0.1788,0.1794,0.1807,0.1815,0.1826,0.1878,0.1853,0.1859,0.1867,0.1928,0.1935,0.1939,0.1954,0.1973,0.1974,0.1975,0.1976,0.2106,0.2108,0,0,0,0,0,0,0.1708,0.1717,0.1773,0.1777,0.1761,0.1807,0.1816,0.1826,0.1877,0.1887,0.1865,0.187,0.1932,0.1937,0.1943,0.2026,0.1974,0.1976,0.1977,0.2103,0.2106,0.2109,0,0,0,0,0,0,0.1706,0.1712,0.177,0.1749,0.1758,0.1807,0.1818,0.1827,0.187,0.1887,0.1897,0.1904,0.1933,0.194,0.1998,0.2025,0.1977,0.1978,0.2101,0.2104,0.2108,0.2124,0,0,0,0,0,0,0.1703,0.1711,0.1735,0.1749,0.1759,0.1803,0.1817,0.1827,0.1871,0.1878,0.1922,0.1929,0.1935,0.1996,0.2,0.2027,0.198,0.2097,0.2102,0.2107,0.212,0.2128,0.2134,0,0,0,0,0,0.17,0.1716,0.1735,0.1743,0.1784,0.1804,0.1811,0.185,0.1871,0.1894,0.1937,0.1929,0.2028,0.1999,0.2003,0.2031,0.2095,0.2101,0.2106,0.2117,0.2126,0.2134,0,0,0,0,0,0,0.1696,0.1725,0.1746,0.1772,0.18,0.1817,0.1849,0.1866,0.1914,0.194,0.1951,0.1961,0.2022,0.2032,0.1999,0.2088,0.2064,0.2071,0.2071,0.208,0.2086,0.2123,0.1981,0,0,0,0,0,0.1704,0.1722,0.1754,0.1773,0.18,0.183,0.1851,0.1878,0.1912,0.1937,0.1971,0.2014,0.2041,0.2066,0.2096,0.2136,0.2166,0.2164,0.2171,0.2176,0.2213,0.2285,0.2301,0.2127,0.2127,0.2127,0,0,0.1699,0.1723,0.1731,0.1774,0.1806,0.1837,0.1848,0.1894,0.1923,0.1936,0.201,0.2038,0.2059,0.2111,0.214,0.2126,0.2238,0.2183,0.2187,0.2223,0.2292,0.2309,0.2324,0.2131,0.213,0.213,0,0,0.17,0.1735,0.1761,0.1789,0.1848,0.1865,0.1885,0.1936,0.1975,0.2035,0.2054,0.2115,0.2159,0.2186,0.2198,0.2265,0.227,0.227,0.2332,0.24,0.2414,0.2428,0.2462,0.2478,0.2274,0.2274,0.2275,0,0.1715,0.1734,0.177,0.1809,0.1836,0.188,0.1916,0.195,0.2014,0.2061,0.2074,0.2186,0.2198,0.2256,0.2286,0.228,0.2313,0.2286,0.2407,0.2421,0.2434,0.2467,0.2484,0.2276,0.2276,0.2276,0.2275,0,0.1723,0.1758,0.1778,0.1837,0.1874,0.1907,0.1962,0.2023,0.2079,0.2121,0.2225,0.2261,0.2339,0.2337,0.2331,0.2428,0.2417,0.24,0.2377,0.2452,0.2482,0.25,0.2278,0.2277,0.2277,0.2277,0,0,0.1711,0.1775,0.1786,0.1816,0.1894,0.1917,0.1995,0.2073,0.2142,0.2224,0.232,0.2377,0.2435,0.2457,0.2461,0.2517,0.2616,0.2509,0.2512,0.253,0.2756,0.2554,0.2554,0.262,0.2624,0.2627,0.2727,0,0.1718,0.1772,0.1808,0.1857,0.1893,0.1964,0.2023,0.2108,0.2199,0.2306,0.2379,0.2472,0.2462,0.2518,0.2576,0.2618,0.2672,0.2591,0.2696,0.2699,0.2499,0.2571,0.264,0.2741,0.2745,0.2748,0.275,0,0.1711,0.1753,0.181,0.1876,0.1904,0.1948,0.2077,0.2138,0.2292,0.2378,0.2507,0.2573,0.2691,0.2665,0.2801,0.2753,0.2777,0.2793,0.2796,0.2625,0.2532,0.2661,0.2783,0.2781,0.2778,0.2776,0.2774,0,0.1654,0.174,0.1782,0.1806,0.1905,0.1967,0.203,0.2179,0.2266,0.2452,0.2557,0.269,0.2791,0.2858,0.2909,0.288,0.3033,0.2986,0.2823,0.2808,0.295,0.2935,0.3089,0.3089,0.3089,0.3088,0.3088,0,0.1603,0.1641,0.177,0.1781,0.1869,0.1952,0.207,0.2166,0.2337,0.2444,0.2602,0.2707,0.2856,0.2951,0.2964,0.2949,0.3086,0.2861,0.2833,0.295,0.2935,0.2961,0.2945,0.3092,0.3091,0.3091,0.309,0,0.1506,0.1587,0.1645,0.1775,0.1839,0.19,0.2083,0.2159,0.2341,0.2496,0.2569,0.2777,0.2896,0.2988,0.31,0.3007,0.3012,0.2966,0.3091,0.3065,0.2727,0.2712,0.2803,0.2797,0.2792,0.2788,0.2784,0,0.1443,0.1478,0.1632,0.1687,0.1753,0.1883,0.1969,0.2154,0.2238,0.2503,0.2549,0.2757,0.2865,0.287,0.2967,0.2981,0.2937,0.2912,0.2818,0.2741,0.2706,0.2698,0.2689,0.2776,0.2775,0.2773,0.2772,0,0.136,0.1442,0.1498,0.1607,0.1707,0.1797,0.1928,0.1993,0.2195,0.2385,0.2493,0.2569,0.2693,0.2762,0.2795,0.2791,0.2913,0.2858,0.2867,0.2779,0.2709,0.2677,0.2675,0.2754,0.2757,0.2759,0.276,0,0.1333,0.1338,0.1438,0.1517,0.1629,0.1671,0.176,0.1864,0.1984,0.2262,0.2291,0.2493,0.2672,0.2664,0.2689,0.2678,0.2631,0.2523,0.2549,0.257,0.2441,0.2314,0.2238,0,0,0,0,0,0.1285,0.1281,0.1342,0.1411,0.1499,0.1565,0.1714,0.1805,0.2023,0.2038,0.2162,0.2259,0.2337,0.2439,0.238,0.2568,0.2627,0.2484,0.2513,0.2656,0.2677,0.2544,0,0,0,0,0,0,0.1257,0.1311,0.1306,0.1321,0.1337,0.1421,0.1508,0.1644,0.1666,0.1891,0.1952,0.2107,0.222,0.2353,0.2337,0.2361,0.2325,0.2603,0.2596,0.2645,0.2663,0.268,0.255,0,0,0,0,0]},{"header":{"parameterUnit":"m.s-1","parameterCategory":2,"la1":30.2991,"la2":30.254,"lo1":-89.0895,"lo2":-89.0444,"dy":0.0017,"dx":0.0017,"nx":28,"ny":28,"refTime":"2025-07-19T21:00:00:Z","depth":"4","parameterNumber":3,"parameterNumberName":"V-component_of_CURRENTS"},"data":[0,0,0,0,0,0,0,0,0,0,0,0,0,0,0,0,0,0,0,0,0,0,0,0,0,0,0,0,0,0,0,0,0,0,0,0,0,0,0,0,0,0,0,0,0,0,0,0,0,0,0,0,0,0,0,0,0,0,0.0166,0.0166,0,0.0127,0.0126,0.0126,0.0103,0.0102,0.0102,0.0102,0.0045,0.0044,0.0042,0,0,0,0,0,0,0,0,0,0,0,0,0,0.0166,0.0166,0.0166,0.0166,0.0166,0.0127,0.0126,0.0126,0.0103,0.0102,0.0102,0.0102,0.0046,0.0044,0.0042,0,0,0,0,0,0,0,0,0,0,0,0,0,0.015,0.0167,0.0167,0.015,0.0148,0.0127,0.0126,0.0126,0.0103,0.0102,0.0102,0.0102,0.0046,0.0044,0.0042,0.0029,0,0,0.0035,0.0034,0,0,0,0,0,0,0,0,0.0151,0.015,0.0153,0.0151,0.0149,0.012,0.0105,0.0093,0.0103,0.0119,0.0102,0.0102,0.0069,0.0065,0.0057,0.0026,0.0024,0.0035,0.0033,0.0033,0.0032,0,0,0,0,0,0,0,0.0152,0.0151,0.015,0.0152,0.015,0.0126,0.0124,0.0103,0.0094,0.0117,0.0116,0.0113,0.0068,0.0059,0.0055,0.0023,0.0035,0.0033,0.0032,0.0031,-0.0026,-0.0026,0,0,0,0,0,0,0.0162,0.0152,0.0151,0.0149,0.0151,0.0126,0.0124,0.0129,0.0094,0.0089,0.0113,0.0112,0.0063,0.0058,0.0053,0.0049,0.0033,0.003,0.0029,-0.0026,-0.0026,-0.0026,0,0,0,0,0,0,0.0162,0.0162,0.0153,0.015,0.0147,0.0127,0.0132,0.0128,0.0125,0.0091,0.0086,0.0115,0.0063,0.0056,0.0041,0.0046,0.0029,0.0027,-0.0026,-0.0026,-0.0026,0.0032,0,0,0,0,0,0,0.0162,0.0163,0.0168,0.0151,0.0148,0.0151,0.0132,0.0127,0.0123,0.0122,0.0091,0.0085,0.0062,0.0045,0.0039,0.0043,0.0026,-0.0026,-0.0026,-0.0026,0.003,0.0033,0.0036,0,0,0,0,0,0.0163,0.0173,0.0169,0.0168,0.0156,0.0152,0.0148,0.0131,0.0123,0.0127,0.0104,0.0086,0.0038,0.0043,0.0036,0.0039,-0.0025,-0.0026,-0.0026,0.0029,0.0033,0.0036,0,0,0,0,0,0,0.0174,0.0172,0.0166,0.0175,0.0168,0.0148,0.0147,0.0138,0.0122,0.0123,0.0088,0.0081,0.0068,0.0044,0.005,0.002,0.0002,-0.0,0.0045,0.0049,0.0052,0.0074,0.0024,0,0,0,0,0,0.018,0.0188,0.018,0.0186,0.0185,0.0168,0.0163,0.0157,0.0142,0.0135,0.0112,0.0084,0.0059,0.0048,0.0024,0.0012,-0.0021,0.0006,0.0009,0.0013,0.0024,-0.0027,-0.0027,-0.0027,-0.0027,-0.0027,0,0,0.0183,0.0184,0.0187,0.0189,0.018,0.019,0.0165,0.0168,0.0176,0.0131,0.0131,0.0097,0.0058,0.0044,0.0035,0.0026,-0.0005,0.0012,0.0015,0.0026,-0.0027,-0.0027,-0.0027,-0.0028,-0.0028,-0.0028,0,0,0.0202,0.0199,0.0216,0.0217,0.0217,0.0209,0.0214,0.0203,0.0198,0.0194,0.0159,0.0131,0.0099,0.0069,0.0049,0.0054,0.0013,0.0043,0.0079,0.003,0.0029,0.0029,-0.0012,-0.0017,0.0045,0.0045,0.0045,0,0.0206,0.0231,0.0218,0.0237,0.0244,0.0223,0.0246,0.0237,0.0222,0.0218,0.0205,0.0145,0.0111,0.0084,0.0086,0.0063,0.0031,0.0071,0.0035,0.0034,0.0032,-0.001,-0.0016,0.0048,0.0048,0.0047,0.0047,0,0.024,0.0261,0.0271,0.029,0.0295,0.0311,0.0304,0.0303,0.0292,0.0279,0.0255,0.0203,0.0168,0.0146,0.012,0.0092,0.0071,0.0046,0.003,0.0036,-0.0009,-0.0016,0.0052,0.0051,0.005,0.0049,0,0,0.0251,0.0289,0.0294,0.0321,0.0329,0.0343,0.0351,0.0355,0.0366,0.0334,0.033,0.0277,0.0245,0.022,0.0172,0.0129,0.0086,0.0092,0.0088,0.006,-0.0018,-0.0016,-0.0025,0.0055,0.0054,0.0053,-0.0046,0,0.0284,0.0341,0.0345,0.0398,0.0429,0.0416,0.0429,0.0427,0.0414,0.0402,0.034,0.0322,0.0274,0.0258,0.0205,0.0116,0.0071,0.0116,-0.0028,-0.0032,-0.0024,-0.0031,0.005,-0.0051,-0.0053,-0.0054,-0.0055,0,0.0323,0.0359,0.042,0.047,0.0481,0.0504,0.0526,0.0539,0.0509,0.0496,0.0456,0.0404,0.0338,0.0295,0.0154,0.0186,0.0096,0.0023,0.0017,-0.0003,-0.0043,-0.0062,-0.0069,-0.0068,-0.0067,-0.0066,-0.0065,0,0.0358,0.0415,0.0471,0.0487,0.0529,0.0552,0.0574,0.0569,0.0595,0.0559,0.0562,0.0466,0.043,0.0301,0.0154,0.0153,-0.001,-0.0035,-0.0119,-0.012,-0.0117,-0.0116,-0.0134,-0.0134,-0.0134,-0.0133,-0.0133,0,0.0397,0.0447,0.0496,0.053,0.0598,0.0608,0.0673,0.067,0.0679,0.0709,0.0622,0.0609,0.0431,0.0315,0.017,0.0008,-0.0001,-0.0109,-0.0145,-0.0092,-0.0086,-0.0123,-0.012,-0.0137,-0.0136,-0.0135,-0.0135,0,0.0433,0.0462,0.0538,0.0597,0.0622,0.0675,0.0759,0.0801,0.0797,0.0827,0.0821,0.0718,0.057,0.0381,0.0166,0.0047,-0.0123,-0.0181,-0.0102,-0.0133,-0.0204,-0.0198,-0.0278,-0.0279,-0.0279,-0.028,-0.028,0,0.0457,0.05,0.0593,0.0645,0.0681,0.0765,0.0824,0.0858,0.0901,0.0893,0.09,0.0781,0.0685,0.0391,0.0182,-0.0098,-0.0138,-0.0229,-0.022,-0.0191,-0.0219,-0.0211,-0.0204,-0.0281,-0.0281,-0.0281,-0.0282,0,0.0503,0.0538,0.0602,0.0708,0.0786,0.0879,0.0961,0.1,0.1029,0.1025,0.0973,0.0819,0.0651,0.0408,0.019,-0.0014,-0.0173,-0.0236,-0.0236,-0.0229,-0.0197,-0.0222,-0.0214,-0.0284,-0.0283,-0.0283,-0.0283,0,0.054,0.0588,0.067,0.0766,0.0869,0.0957,0.1003,0.1048,0.1087,0.1062,0.1042,0.0855,0.0745,0.0452,0.0246,0.0049,-0.0,-0.0068,-0.0078,-0.0078,0.0005,0.0077,0.0047,0,0,0,0,0,0.0562,0.0622,0.0718,0.082,0.0927,0.0983,0.1074,0.1106,0.1125,0.1101,0.1077,0.0917,0.0626,0.0497,0.0303,0.0223,-0.0044,-0.0013,-0.0129,-0.0296,-0.0293,-0.023,0,0,0,0,0,0,0.0577,0.0667,0.0718,0.0852,0.0927,0.1039,0.1102,0.1118,0.1102,0.1087,0.0939,0.0861,0.0579,0.0737,0.0296,0.0236,0.0134,-0.015,-0.0155,-0.0297,-0.0295,-0.0293,-0.0227,0,0,0,0,0]}]]